| time (UTC) | temp F | wind direction | speed knots | gust knots | rain 1hr in | rain 24hr in | rain mn in | humidity % | barometer mb |
| 20260502163101 | 66 | 252 | 1.7 | 5.2 | 0.00 | 0.00 | 0.00 | 33 | 1021.3 |
| 20260502161556 | 65 | 255 | 0.9 | 3.5 | 0.00 | 0.00 | 0.00 | 34 | 1021.3 |
| 20260502151613 | 60 | 0 | 0.9 | 2.6 | 0.00 | 0.00 | 0.00 | 34 | 1021.5 |
| 20260502123059 | 41 | 75 | 0.0 | 1.7 | 0.00 | 0.00 | 0.00 | 63 | 1020.9 |
| 20260502121556 | 41 | 0 | 0.0 | 0.0 | 0.00 | 0.00 | 0.00 | 62 | 1020.8 |
| 20260502114602 | 43 | 75 | 0.0 | 2.6 | 0.00 | 0.00 | 0.00 | 58 | 1020.9 |
| 20260502113120 | 42 | 65 | 1.7 | 3.5 | 0.00 | 0.00 | 0.00 | 58 | 1020.8 |
| 20260502111602 | 42 | 61 | 0.9 | 4.3 | 0.00 | 0.00 | 0.00 | 59 | 1020.9 |
| 20260502110056 | 42 | 61 | 2.6 | 3.5 | 0.00 | 0.00 | 0.00 | 61 | 1020.9 |
| 20260502104608 | 42 | 53 | 1.7 | 3.5 | 0.00 | 0.00 | 0.00 | 63 | 1020.9 |
| 20260502103058 | 42 | 66 | 1.7 | 3.5 | 0.00 | 0.00 | 0.00 | 66 | 1020.9 |
| 20260502101611 | 43 | 42 | 0.9 | 4.3 | 0.00 | 0.00 | 0.00 | 68 | 1020.9 |
| 20260502090118 | 42 | 81 | 0.9 | 2.6 | 0.00 | 0.00 | 0.00 | 65 | 1020.9 |
| 20260502070116 | 45 | 35 | 2.6 | 3.5 | 0.00 | 0.00 | 0.00 | 65 | 1020.3 |
| 20260502064558 | 46 | 121 | 0.9 | 3.5 | 0.00 | 0.00 | 0.00 | 62 | 1020.5 |
| 20260502063121 | 46 | 111 | 1.7 | 3.5 | 0.00 | 0.00 | 0.00 | 62 | 1020.4 |
| 20260502061600 | 46 | 149 | 1.7 | 3.5 | 0.00 | 0.00 | 0.00 | 62 | 1020.4 |
| 20260502060100 | 45 | 120 | 0.9 | 1.7 | 0.00 | 0.00 | 0.00 | 62 | 1020.3 |
| 20260502054615 | 46 | 120 | 0.0 | 1.7 | 0.00 | 0.00 | 0.00 | 60 | 1020.3 |
| 20260502053058 | 47 | 0 | 0.0 | 1.7 | 0.00 | 0.00 | 0.00 | 59 | 1020.2 |
| 20260502051603 | 48 | 0 | 0.0 | 2.6 | 0.00 | 0.00 | 0.00 | 57 | 1020.2 |
| 20260502050057 | 48 | 120 | 0.0 | 0.9 | 0.00 | 0.00 | 0.00 | 57 | 1020.1 |
| 20260502044558 | 49 | 0 | 0.0 | 2.6 | 0.00 | 0.00 | 0.00 | 54 | 1020.2 |
| 20260502043112 | 50 | 120 | 0.9 | 3.5 | 0.00 | 0.00 | 0.00 | 56 | 1020.1 |
| 20260502041624 | 49 | 113 | 1.7 | 5.2 | 0.00 | 0.00 | 0.00 | 60 | 1020.1 |
| 20260502040104 | 50 | 0 | 0.0 | 0.0 | 0.00 | 0.00 | 0.00 | 60 | 1019.9 |
| 20260502034600 | 51 | 0 | 0.0 | 0.0 | 0.00 | 0.00 | 0.00 | 57 | 1019.7 |
| 20260502033058 | 52 | 0 | 0.0 | 0.9 | 0.00 | 0.00 | 0.00 | 55 | 1019.7 |
| 20260502031602 | 54 | 300 | 0.9 | 1.7 | 0.00 | 0.00 | 0.00 | 53 | 1019.5 |
| 20260502030117 | 55 | 0 | 0.0 | 1.7 | 0.00 | 0.00 | 0.00 | 51 | 1019.2 |
| 20260502024605 | 57 | 300 | 0.9 | 2.6 | 0.00 | 0.00 | 0.00 | 49 | 1019.1 |
| 20260502023132 | 58 | 285 | 0.9 | 4.3 | 0.00 | 0.00 | 0.00 | 45 | 1019.1 |
| 20260502021559 | 60 | 291 | 1.7 | 6.1 | 0.00 | 0.00 | 0.00 | 41 | 1018.9 |
| 20260502014607 | 63 | 279 | 3.5 | 9.6 | 0.00 | 0.00 | 0.00 | 37 | 1018.8 |
| 20260502013102 | 64 | 244 | 4.3 | 8.7 | 0.00 | 0.00 | 0.00 | 34 | 1018.7 |
| 20260502011607 | 64 | 283 | 4.3 | 9.6 | 0.00 | 0.00 | 0.00 | 35 | 1018.5 |
| 20260502010056 | 66 | 325 | 5.2 | 9.6 | 0.00 | 0.00 | 0.00 | 35 | 1018.5 |
| 20260502004557 | 67 | 296 | 5.2 | 10.4 | 0.00 | 0.00 | 0.00 | 32 | 1018.6 |
| 20260502003056 | 67 | 328 | 7.0 | 12.2 | 0.00 | 0.00 | 0.00 | 30 | 1018.6 |
| 20260502001601 | 68 | 296 | 6.1 | 11.3 | 0.00 | 0.00 | 0.00 | 29 | 1018.7 |
| 20260502000109 | 68 | 321 | 5.2 | 13.0 | 0.00 | 0.00 | 0.00 | 30 | 1018.7 |
| 20260501234558 | 67 | 317 | 6.1 | 13.9 | 0.00 | 0.00 | 0.00 | 31 | 1018.7 |
| 20260501233119 | 67 | 269 | 6.1 | 14.8 | 0.00 | 0.00 | 0.00 | 31 | 1018.8 |
| 20260501231626 | 67 | 273 | 6.1 | 13.9 | 0.00 | 0.00 | 0.00 | 32 | 1018.9 |
| 20260501230123 | 67 | 323 | 6.1 | 13.9 | 0.00 | 0.00 | 0.00 | 33 | 1019.0 |
| 20260501224608 | 66 | 301 | 7.8 | 13.9 | 0.00 | 0.00 | 0.00 | 31 | 1019.0 |
| 20260501223102 | 67 | 269 | 8.7 | 13.9 | 0.00 | 0.00 | 0.00 | 30 | 1019.1 |
| 20260501221611 | 67 | 290 | 7.8 | 14.8 | 0.00 | 0.00 | 0.00 | 31 | 1019.5 |
| 20260501220106 | 66 | 265 | 7.8 | 16.5 | 0.00 | 0.00 | 0.00 | 31 | 1019.6 |
| 20260501214559 | 67 | 292 | 7.0 | 16.5 | 0.00 | 0.00 | 0.00 | 29 | 1019.6 |
| 20260501213101 | 66 | 313 | 7.8 | 18.2 | 0.00 | 0.00 | 0.00 | 32 | 1019.9 |
| 20260501211558 | 66 | 312 | 8.7 | 14.8 | 0.00 | 0.00 | 0.00 | 33 | 1020.1 |
| 20260501204557 | 65 | 285 | 7.0 | 17.4 | 0.00 | 0.00 | 0.00 | 35 | 1020.4 |
| 20260501203056 | 65 | 307 | 7.0 | 15.6 | 0.00 | 0.00 | 0.00 | 35 | 1020.4 |
| 20260501201602 | 65 | 269 | 7.8 | 15.6 | 0.00 | 0.00 | 0.00 | 36 | 1020.2 |
| 20260501200059 | 64 | 288 | 7.8 | 14.8 | 0.00 | 0.00 | 0.00 | 37 | 1020.4 |
| 20260501194600 | 65 | 255 | 6.1 | 13.9 | 0.00 | 0.00 | 0.00 | 34 | 1020.5 |
| 20260501193057 | 65 | 206 | 3.5 | 9.6 | 0.00 | 0.00 | 0.00 | 38 | 1020.6 |
| 20260501191557 | 65 | 257 | 5.2 | 12.2 | 0.00 | 0.00 | 0.00 | 36 | 1020.6 |
| 20260501190057 | 64 | 223 | 7.0 | 12.2 | 0.00 | 0.00 | 0.00 | 34 | 1020.7 |
| 20260501184559 | 64 | 216 | 6.1 | 14.8 | 0.00 | 0.00 | 0.00 | 37 | 1020.8 |
| 20260501183103 | 63 | 192 | 3.5 | 8.7 | 0.00 | 0.00 | 0.00 | 31 | 1021.0 |
| 20260501181600 | 63 | 163 | 3.5 | 12.2 | 0.00 | 0.00 | 0.00 | 29 | 1021.1 |